Tracking 27079 objects as of 23-Mar-2023
HD Live streaming from Space Station
objects crossing your sky now

HIBER-2

Track HIBER-2 now!
10-day predictions


NORAD ID: 43774
Int'l Code: 2018-099S
Perigee: 561.8 km
Apogee: 583.0 km
Inclination: 97.6 °
Period: 96.0 minutes
Semi major axis: 6943 km
RCS: Unknown
Launch date: December 3, 2018
Source: Netherlands (NETH)
Launch site: AIR FORCE WESTERN TEST RANGE (AFWTR)
Your satellite tracking list
Your tracking list is empty




NASA's NSSDC Master Catalog

Two Line Element Set (TLE):
1 43774U 18099S   23082.12645271  .00011175  00000-0  88829-3 0  9998
2 43774  97.5910 147.9370 0015265  55.7633 304.5034 15.00515458234762
Source of the keplerian elements: AFSPC